Regional Weather Roundup
Issued by NWS

Home | Current Version | Previous Version | Text Only | Print | Product List | Glossary Off
Versions: 1 2 3 4 5 6 7 8 9 10 11 12 13 14 15 16 17 18 19 20 21 22 23 24 25 26 27 28 29 30 31 32 33 34 35 36 37 38 39 40 41 42 43 44 45 46 47 48 49 50

000
ASUS43 KLMK 260102
RWRKY
KENTUCKY REGIONAL WEATHER ROUNDUP
NATIONAL WEATHER SERVICE LOUISVILLE KY
900 PM EDT WED MAY 25 2016

NOTE "FAIR" INDICATES FEW OR NO CLOUDS BELOW 12,000 FEET
WITH NO SIGNIFICANT WEATHER AND/OR OBSTRUCTIONS TO VISIBILITY.

KYZ001>023-026-027-061>063-070>075-260200-
WESTERN AND SOUTH CENTRAL KENTUCKY

CITY           SKY/WX    TMP DP  RH WIND       PRES   REMARKS
PADUCAH        CLOUDY    71  67  87 S9        30.04S
HENDERSON      CLOUDY    70  63  78 S14G22    30.03R
OWENSBORO      LGT RAIN  69  66  90 S13       30.06R
HOPKINSVILLE   CLOUDY    66  66 100 SE6       30.09R
BOWLING GREEN  LGT RAIN  68  65  90 W8        30.13R
GLASGOW        NOT AVBL
$$

KYZ024-025-028>034-038-045-046-053-260200-
NORTH CENTRAL KENTUCKY

CITY           SKY/WX    TMP DP  RH WIND       PRES   REMARKS
LOUISVILLE/SDF CLOUDY    75  62  64 S10       30.05S
LOUISVILLE/LOU MOCLDY    75  61  61 S9G18     30.05F
FORT KNOX      CLOUDY    70  62  74 SE10      30.05S
$$

KYZ035>037-039>044-047>052-055>060-089>105-260200-
NORTHEAST KENTUCKY

CITY           SKY/WX    TMP DP  RH WIND       PRES   REMARKS
LEXINGTON      CLOUDY    74  62  66 S10       30.10S
COVINGTON      CLOUDY    76  64  66 S10G20    30.05S
FRANKFORT      CLOUDY    75  62  64 S13       30.07S
$$

KYZ054-064>069-076>088-106>120-260200-
SOUTHEAST KENTUCKY

CITY           SKY/WX    TMP DP  RH WIND       PRES   REMARKS
JACKSON        CLOUDY    72  60  66 CALM      30.15F
LONDON         CLOUDY    74  64  71 SW3       30.16R
SOMERSET       NOT AVBL
MIDDLESBORO    CLOUDY    73  62  66 CALM      30.17S
MONTICELLO     LGT RAIN  69  65  86 VRB5G18   30.17S
$$




USA.gov is the U.S. government's official web portal to all federal, state and local government web resources and services.